Regional Weather Roundup
Issued by NWS Upton, NY

Current Version | Previous Version | Graphics & Text | Print | Product List | Glossary Off
Versions: 1 2 3 4 5 6 7 8 9 10 11 12 13 14 15 16 17 18 19 20 21 22 23 24 25 26 27 28 29 30 31 32 33 34 35 36 37 38 39 40 41 42 43 44 45 46 47 48 49 50

000
ASUS41 KOKX 300907
RWROKX

REGIONAL WEATHER ROUNDUP
NATIONAL WEATHER SERVICE NEW YORK NY
500 AM EDT MON MAR 30 2015

NOTE: "FAIR" INDICATES FEW OR NO CLOUDS BELOW 12,000 FEET WITH NO
SIGNIFICANT WEATHER AND/OR OBSTRUCTIONS TO VISIBILITY.

NYZ071-072-176-178-NJZ106-104-301000-
NEW YORK CITY METRO AREA


CITY           SKY/WX    TMP DP  RH WIND       PRES   REMARKS
CENTRAL PARK   CLOUDY    39  12  33 VRB5      30.00F
LAGUARDIA APRT CLOUDY    38  13  35 S12       30.00F WCI  30
KENNEDY INTL   CLOUDY    38  21  50 S20       30.02F WCI  28
NEWARK/LIBERTY CLOUDY    37  16  42 S12       30.00F WCI  29
BRNX BOT. GARD   N/A    N/A N/A N/A S9        29.98F
TETERBORO      CLOUDY    37  15  40 S14       29.99F WCI  28
$$

NYZ177-179-078>081-301000-
LONG ISLAND NEW YORK

CITY           SKY/WX    TMP DP  RH WIND       PRES   REMARKS
FARMINGDALE    CLOUDY    37  27  67 SW14G22   30.00F WCI  28
ISLIP          CLOUDY    37  27  67 SW14      30.00F WCI  28
SHIRLEY        CLOUDY    37  27  67 SW12      30.03F WCI  29
WESTHAMPTON    CLOUDY    37  26  64 S8G16     30.04F WCI  31
MONTAUK POINT    N/A     38  27  64 SW8       30.04F WCI  32
$$

NYZ052-065-067-301000-
HUDSON VALLEY

CITY           SKY/WX    TMP DP  RH WIND       PRES   REMARKS
WHITE PLAINS   CLOUDY    36  13  38 VRB3      29.96F
NEWBURGH       CLOUDY    36  12  38 SW5       29.94F WCI  32
MONTGOMERY     CLOUDY    36  14  40 SW10      29.92F WCI  28
POUGHKEEPSIE   CLOUDY    39  10  30 SW7       29.94F WCI  34
ALBANY         CLOUDY    36  12  37 S8        29.87F WCI  30
$$

NJZ001-105-106-008-010-013-015-019>022-104-301000-
NEW JERSEY

CITY           SKY/WX    TMP DP  RH WIND       PRES   REMARKS
NEWARK/LIBERTY CLOUDY    37  16  42 S12       30.00F WCI  29
TETERBORO      CLOUDY    37  15  40 S14       29.99F WCI  28
CALDWELL       CLOUDY    37  12  35 VRB5      29.99F WCI  33
MORRISTOWN     CLOUDY    37  12  35 SW5       29.98F WCI  34
SOMERVILLE     CLOUDY    34  20  56 S3        29.97F
SUSSEX         LGT SNOW  31  25  78 SW7G16    29.95F VSB 1   WCI  24
ANDOVER          N/A     31  28  89 VRB3      29.94F
TRENTON        CLOUDY    36  17  46 S9        29.99F WCI  29
MILLVILLE      CLOUDY    34  31  88 S5        30.02F WCI  30
ATLANTIC CITY  CLOUDY    38  25  59 SW10      30.05F WCI  31
WRIGHTSTOWN    MIX PCPN  34  19  55 SW15      30.00F WCI  24
TOMS RIVER     CLOUDY    36  23  60 SW9       30.03F WCI  29
BELMAR         CLOUDY    36  19  51 SW12      30.01F WCI  27
$$

PAZ047>061-062-071-301000-
EASTERN PENNSYLVANIA

CITY           SKY/WX    TMP DP  RH WIND       PRES   REMARKS
PHILADELPHIA   CLOUDY    35  30  82 S13       30.01F WCI  26
ALLENTOWN      CLOUDY    34  29  82 CALM      29.94F
SCRANTON       CLOUDY    33  26  75 SW9       29.88F WCI  25
$$

CTZ002-004>006-009-010-012-RIZ004-006-007-MAZ004-011-015-301000-
SOUTHERN NEW ENGLAND
 IN CT

CITY           SKY/WX    TMP DP  RH WIND       PRES   REMARKS
BRADLEY INTL   CLOUDY    33  23  66 S9        29.95F WCI  25
HARTFORD       CLOUDY    33  25  72 S8        29.98F WCI  26
DANBURY        CLOUDY    35  12  38 S6        29.97F WCI  30
WTRBRY/OXFORD  MOCLDY    34  16  47 S8        29.95F WCI  27
BRIDGEPORT     CLOUDY    36  25  64 SW12      29.99F WCI  28
MERIDEN        CLOUDY    33  25  72 S6        29.98F WCI  28
NEW HAVEN      MOCLDY    36  25  64 S8        29.99F WCI  30
CHESTER        FAIR      34  25  69 SW6       29.99F WCI  29
GROTON         CLOUDY    36  30  79 S13       30.02F WCI  27
WILLIMANTIC    CLOUDY    28  23  81 CALM      29.99F

 IN RI

CITY           SKY/WX    TMP DP  RH WIND       PRES   REMARKS
PROVIDENCE     MOCLDY    30  25  81 S8        30.01F WCI  22
BLOCK ISLAND   PTCLDY    36  28  75 SW13      30.03S WCI  27
WESTERLY       MOCLDY    36  29  75 SW12      30.03F WCI  28

 IN MA

CITY           SKY/WX    TMP DP  RH WIND       PRES   REMARKS
BOSTON         NOT AVBL
WORCESTER      CLOUDY    29  17  61 SW14      29.91F WCI  18
WESTFIELD      CLOUDY    32  19  58 S8        29.93F WCI  25
PROVINCETOWN   PTCLDY    34  27  75 SW13      30.02F WCI  25
NANTUCKET      NOT AVBL
$$

ANZ330-335-338-340-345-350-353-355-301000-
COASTAL MARINE OBSERVATIONS


STATION/POSITION TIME  SKY/WX   TEMP    WIND        PRES    VSBY  WAVE
                                AIR SEA DIR/SP/G                  HT/PER
                 (UTC)          (F)     (DEG/KT/KT) (MB)    (MI)  (FT/S)
NY HARB ENTRANCE 0850            39 38  200/ 19/ 21 1015.6          4/11
4S FIRE IS       0803               37                N/A           4/11
20S FIRE ISLAND  0750               38              1018.5          4/ 4
23SW MTP         0850                                 N/A           5/10
HUDSON CANYON    NOT AVBL
EXECUTION ROCKS  NOT AVBL
WESTERN LI SOUND NOT AVBL
CENTRAL LI SOUND NOT AVBL
EASTERN LI SOUND NOT AVBL
ROBBINS REEF     0800            37     200/ 14/ 17 1015.3
$$


>>>>>>>>>>>>>>>>>>>>>>>>>>>> KEY <<<<<<<<<<<<<<<<<<<<<<<<<<<
>                                                          <
>     SKY/WX - SKY CONDITION/PRESENT WEATHER               <
>     TMP    - TEMPERATURE IN FAHRENHEIT                   <
>     DP     - DEWPOINT IN FAHRENHEIT                      <
>     RH     - RELATIVE HUMIDITY IN PERCENT                <
>     WIND   - DIRECTION AND SPEED IN MPH                  <
>     PRES   - MEAN SEA LEVEL PRESSURE IN INCHES OF HG     <
>     WCI    - WIND CHILL INDEX                            <
>     VSB    - VISIBILITY IN MILES                         <
>     HX     - HEAT INDEX                                  <
>     TC     - TEMPERATURE IN CELSIUS                      <
>     VRB    - VARIABLE WIND DIRECTION                     <
>                                                          <
>>>>>>>>>>>>>>>>>>>>>>>>>>>> KEY <<<<<<<<<<<<<<<<<<<<<<<<<<<





USA.gov is the U.S. government's official web portal to all federal, state and local government web resources and services.